Hourly Weather Bolshie Litvinovichi

Today, 17 June, Thursday

Time Temperature Precipitation Wind Pressure Humidity
00:00 +14°C° 0 mm 3 mps 752 mmHg 84%
01:00 +14°C° 0 mm 3 mps 752 mmHg 85%
02:00 +14°C° 0 mm 3 mps 752 mmHg 87%
03:00 +14°C° 0 mm 3 mps 752 mmHg 87%
04:00 +14°C° 0 mm 3 mps 753 mmHg 87%
05:00 +15°C° 0 mm 2 mps 753 mmHg 87%
06:00 +17°C° 0 mm 3 mps 753 mmHg 80%
07:00 +19°C° 0 mm 3 mps 754 mmHg 74%
08:00 +21°C° 0 mm 3 mps 754 mmHg 67%
09:00 +22°C° 0 mm 3 mps 754 mmHg 61%
10:00 +25°C° 0 mm 4 mps 754 mmHg 56%
11:00 +26°C° 0 mm 4 mps 754 mmHg 50%
12:00 +26°C° 0 mm 4 mps 755 mmHg 48%
13:00 +27°C° 0 mm 4 mps 755 mmHg 46%
14:00 +27°C° 0 mm 4 mps 755 mmHg 45%
15:00 +27°C° 0 mm 4 mps 755 mmHg 48%
16:00 +26°C° 0 mm 4 mps 754 mmHg 51%
17:00 +26°C° 0 mm 4 mps 754 mmHg 55%
18:00 +24°C° 0 mm 3 mps 755 mmHg 62%
19:00 +21°C° 0 mm 3 mps 755 mmHg 70%
20:00 +20°C° 0 mm 2 mps 755 mmHg 77%
21:00 +19°C° 0 mm 2 mps 755 mmHg 80%
22:00 +17°C° 0 mm 2 mps 755 mmHg 83%
23:00 +16°C° 0 mm 2 mps 755 mmHg 85%

Tomorrow, 18 June, Friday

Time Temperature Precipitation Wind Pressure Humidity
00:00 +16°C° 0 mm 2 mps 755 mmHg 87%
01:00 +14°C° 0 mm 3 mps 755 mmHg 88%
02:00 +14°C° 0 mm 3 mps 755 mmHg 89%
03:00 +14°C° 0 mm 3 mps 756 mmHg 89%
04:00 +14°C° 0 mm 3 mps 756 mmHg 88%
05:00 +14°C° 0 mm 3 mps 756 mmHg 88%
06:00 +17°C° 0 mm 3 mps 756 mmHg 81%
07:00 +19°C° 0 mm 4 mps 756 mmHg 75%
08:00 +21°C° 0 mm 4 mps 756 mmHg 68%
09:00 +22°C° 0 mm 4 mps 756 mmHg 65%
10:00 +23°C° 0 mm 4 mps 756 mmHg 62%
11:00 +26°C° 0 mm 5 mps 756 mmHg 59%
12:00 +26°C° 0 mm 5 mps 756 mmHg 56%
13:00 +27°C° 0 mm 5 mps 755 mmHg 53%
14:00 +28°C° 0 mm 5 mps 755 mmHg 50%
15:00 +27°C° 0 mm 5 mps 755 mmHg 52%
16:00 +27°C° 0 mm 4 mps 755 mmHg 54%
17:00 +26°C° 0 mm 4 mps 755 mmHg 57%
18:00 +25°C° 0 mm 4 mps 755 mmHg 65%
19:00 +22°C° 0 mm 3 mps 755 mmHg 73%
20:00 +20°C° 0 mm 3 mps 755 mmHg 81%
21:00 +19°C° 0 mm 3 mps 755 mmHg 85%
22:00 +19°C° 0 mm 2 mps 755 mmHg 88%
23:00 +18°C° 0 mm 2 mps 756 mmHg 92%

Day after tomorrow, 19 June, Saturday

Time Temperature Precipitation Wind Pressure Humidity
00:00 +17°C° 0 mm 2 mps 756 mmHg 93%
01:00 +17°C° 0 mm 2 mps 756 mmHg 94%
02:00 +17°C° 0 mm 2 mps 755 mmHg 95%
03:00 +17°C° 0 mm 2 mps 756 mmHg 95%
04:00 +17°C° 0 mm 2 mps 756 mmHg 94%
05:00 +17°C° 0 mm 2 mps 756 mmHg 94%
06:00 +19°C° 0 mm 2 mps 756 mmHg 87%
07:00 +20°C° 0 mm 3 mps 756 mmHg 79%
08:00 +22°C° 0 mm 3 mps 756 mmHg 72%
09:00 +23°C° 0 mm 4 mps 755 mmHg 66%
10:00 +25°C° 0 mm 4 mps 755 mmHg 60%
11:00 +27°C° 0 mm 4 mps 755 mmHg 54%
12:00 +27°C° 0 mm 4 mps 755 mmHg 52%
13:00 +28°C° 0 mm 4 mps 754 mmHg 50%
14:00 +28°C° 0 mm 4 mps 754 mmHg 48%
15:00 +28°C° 0 mm 4 mps 754 mmHg 51%
16:00 +28°C° 0 mm 4 mps 754 mmHg 54%
17:00 +28°C° 0 mm 4 mps 753 mmHg 56%
18:00 +26°C° 0 mm 3 mps 753 mmHg 65%
19:00 +24°C° 0 mm 3 mps 753 mmHg 73%
20:00 +22°C° 0 mm 3 mps 753 mmHg 81%
21:00 +21°C° 0 mm 3 mps 754 mmHg 85%
22:00 +20°C° 0 mm 3 mps 754 mmHg 89%
23:00 +19°C° 0 mm 2 mps 754 mmHg 92%

20 June, Sunday

Time Temperature Precipitation Wind Pressure Humidity
00:00 +19°C° 0 mm 2 mps 754 mmHg 93%
01:00 +19°C° 0 mm 2 mps 754 mmHg 94%
02:00 +19°C° 0 mm 2 mps 754 mmHg 95%
03:00 +19°C° 0 mm 2 mps 753 mmHg 94%
04:00 +19°C° 0 mm 2 mps 753 mmHg 93%
05:00 +19°C° 0 mm 2 mps 753 mmHg 93%
06:00 +20°C° 0 mm 3 mps 753 mmHg 86%
07:00 +22°C° 0 mm 3 mps 753 mmHg 80%
08:00 +23°C° 0 mm 4 mps 753 mmHg 74%
09:00 +26°C° 0 mm 4 mps 753 mmHg 68%
10:00 +27°C° 0 mm 4 mps 753 mmHg 63%
11:00 +28°C° 0 mm 5 mps 753 mmHg 57%
12:00 +28°C° 0 mm 5 mps 753 mmHg 55%
13:00 +28°C° 0 mm 5 mps 752 mmHg 53%
14:00 +29°C° 0 mm 5 mps 752 mmHg 51%
15:00 +28°C° 0 mm 4 mps 752 mmHg 53%
16:00 +28°C° 0 mm 4 mps 752 mmHg 55%
17:00 +28°C° 0 mm 4 mps 752 mmHg 57%
18:00 +26°C° 0 mm 4 mps 751 mmHg 65%
19:00 +24°C° 0 mm 3 mps 751 mmHg 72%
20:00 +22°C° 0 mm 3 mps 751 mmHg 80%
21:00 +21°C° 0 mm 3 mps 751 mmHg 84%
22:00 +20°C° 0 mm 3 mps 751 mmHg 88%
23:00 +19°C° 0 mm 2 mps 751 mmHg 92%

21 June, Monday

Time Temperature Precipitation Wind Pressure Humidity
00:00 +18°C° 0 mm 2 mps 751 mmHg 93%
01:00 +18°C° 0 mm 2 mps 751 mmHg 94%
02:00 +17°C° 0 mm 2 mps 751 mmHg 95%
03:00 +18°C° 0 mm 3 mps 751 mmHg 94%
04:00 +18°C° 0 mm 3 mps 751 mmHg 93%
05:00 +18°C° 0 mm 3 mps 751 mmHg 91%
06:00 +20°C° 0 mm 3 mps 751 mmHg 83%
07:00 +21°C° 0 mm 4 mps 750 mmHg 75%
08:00 +23°C° 0 mm 5 mps 750 mmHg 67%
09:00 +26°C° 0 mm 5 mps 750 mmHg 62%
10:00 +27°C° 0 mm 5 mps 750 mmHg 58%
11:00 +28°C° 0 mm 5 mps 750 mmHg 53%
12:00 +28°C° 0 mm 5 mps 749 mmHg 53%
13:00 +29°C° 0 mm 6 mps 749 mmHg 53%
14:00 +29°C° 0 mm 6 mps 749 mmHg 53%
15:00 +29°C° 0 mm 6 mps 749 mmHg 55%
16:00 +29°C° 0 mm 5 mps 748 mmHg 56%
17:00 +30°C° 0 mm 5 mps 748 mmHg 58%
18:00 +28°C° 0 mm 4 mps 748 mmHg 64%
19:00 +26°C° 0 mm 4 mps 748 mmHg 70%
20:00 +25°C° 0 mm 3 mps 748 mmHg 76%
21:00 +24°C° 0 mm 3 mps 748 mmHg 81%
22:00 +22°C° 0 mm 3 mps 748 mmHg 85%
23:00 +21°C° 0 mm 3 mps 748 mmHg 90%

22 June, Tuesday

Time Temperature Precipitation Wind Pressure Humidity
00:00 +21°C° 0 mm 3 mps 748 mmHg 92%
01:00 +20°C° 0 mm 3 mps 748 mmHg 94%
02:00 +20°C° 0 mm 3 mps 748 mmHg 95%
03:00 +20°C° 0 mm 3 mps 748 mmHg 94%
04:00 +20°C° 0 mm 3 mps 748 mmHg 92%
05:00 +20°C° 0 mm 3 mps 748 mmHg 90%
06:00 +22°C° 0 mm 3 mps 748 mmHg 85%
07:00 +24°C° 0 mm 3 mps 749 mmHg 79%
08:00 +25°C° 0 mm 4 mps 749 mmHg 74%
09:00 +27°C° 0 mm 4 mps 749 mmHg 67%
10:00 +29°C° 0 mm 4 mps 749 mmHg 60%
11:00 +32°C° 0 mm 4 mps 749 mmHg 53%
12:00 +32°C° 0 mm 4 mps 748 mmHg 51%
13:00 +33°C° 0 mm 4 mps 748 mmHg 49%
14:00 +33°C° 0 mm 5 mps 748 mmHg 47%
15:00 +32°C° 0 mm 5 mps 748 mmHg 50%
16:00 +32°C° 0 mm 4 mps 749 mmHg 53%
17:00 +30°C° 0 mm 4 mps 749 mmHg 56%
18:00 +28°C° 0 mm 4 mps 749 mmHg 64%
19:00 +26°C° 0 mm 4 mps 749 mmHg 72%
20:00 +25°C° 0 mm 3 mps 749 mmHg 79%
21:00 +24°C° 0 mm 3 mps 749 mmHg 84%
22:00 +22°C° 0 mm 3 mps 749 mmHg 89%
23:00 +21°C° 0 mm 3 mps 749 mmHg 94%
Show more